Time,TemperatureF,DewpointF,PressureIn,WindDirection,WindDirectionDegrees,WindSpeedMPH,WindSpeedGustMPH,Humidity,HourlyPrecipIn,Conditions,Clouds,dailyrainin,SoftwareType,DateUTC
2013-01-09 00:02:00,39.9,33.6,30.36,WSW,238,4.0,5.0,78,0.00,,,0.00,Wunderground v.1.15,2013-01-09 05:02:00,
2013-01-09 00:08:00,39.9,33.9,30.36,WSW,248,4.0,5.0,79,0.00,,,0.00,Wunderground v.1.15,2013-01-09 05:08:00,
2013-01-09 00:11:00,39.9,33.9,30.36,WSW,241,4.0,5.0,79,0.00,,,0.00,Wunderground v.1.15,2013-01-09 05:11:00,
2013-01-09 00:16:00,40.0,34.0,30.35,SW,234,4.0,6.0,79,0.00,,,0.00,Wunderground v.1.15,2013-01-09 05:16:00,
2013-01-09 00:21:00,40.0,34.0,30.35,WSW,244,4.0,4.0,79,0.00,,,0.00,Wunderground v.1.15,2013-01-09 05:21:00,
2013-01-09 00:27:00,40.0,34.0,30.35,WSW,246,4.0,4.0,79,0.00,,,0.00,Wunderground v.1.15,2013-01-09 05:27:00,
2013-01-09 00:33:00,39.9,33.9,30.35,WSW,245,4.0,4.0,79,0.00,,,0.00,Wunderground v.1.15,2013-01-09 05:33:00,
2013-01-09 00:38:00,39.6,33.6,30.36,WSW,248,3.0,4.0,79,0.00,,,0.00,Wunderground v.1.15,2013-01-09 05:38:00,
2013-01-09 00:43:00,39.3,33.6,30.36,WSW,251,3.0,4.0,80,0.00,,,0.00,Wunderground v.1.15,2013-01-09 05:43:00,
2013-01-09 00:48:00,39.2,33.5,30.36,WSW,252,3.0,4.0,80,0.00,,,0.00,Wunderground v.1.15,2013-01-09 05:48:00,
2013-01-09 00:53:00,39.1,33.5,30.35,WSW,249,3.0,5.0,80,0.00,,,0.00,Wunderground v.1.15,2013-01-09 05:53:00,
2013-01-09 00:59:00,39.1,33.8,30.35,WSW,241,3.0,5.0,81,0.00,,,0.00,Wunderground v.1.15,2013-01-09 05:59:00,
2013-01-09 01:04:00,39.2,33.5,30.35,WSW,256,4.0,5.0,80,0.00,,,0.00,Wunderground v.1.15,2013-01-09 06:04:00,
2013-01-09 01:09:00,39.3,33.6,30.35,WSW,246,4.0,5.0,80,0.00,,,0.00,Wunderground v.1.15,2013-01-09 06:09:00,
2013-01-09 01:14:00,39.3,33.6,30.35,WSW,243,4.0,5.0,80,0.00,,,0.00,Wunderground v.1.15,2013-01-09 06:14:00,
2013-01-09 01:20:00,39.2,33.5,30.35,WSW,252,4.0,5.0,80,0.00,,,0.00,Wunderground v.1.15,2013-01-09 06:20:00,
2013-01-09 01:25:00,39.1,33.8,30.35,WSW,242,4.0,5.0,81,0.00,,,0.00,Wunderground v.1.15,2013-01-09 06:25:00,
2013-01-09 01:30:00,38.9,33.6,30.35,WSW,245,3.0,4.0,81,0.00,,,0.00,Wunderground v.1.15,2013-01-09 06:30:00,
2013-01-09 01:36:00,38.9,33.6,30.35,WSW,250,3.0,4.0,81,0.00,,,0.00,Wunderground v.1.15,2013-01-09 06:36:00,
2013-01-09 01:41:00,38.8,33.5,30.35,WSW,249,3.0,3.0,81,0.00,,,0.00,Wunderground v.1.15,2013-01-09 06:41:00,
2013-01-09 01:47:00,38.7,33.4,30.35,WSW,249,2.0,3.0,81,0.00,,,0.00,Wunderground v.1.15,2013-01-09 06:47:00,
2013-01-09 01:53:00,38.5,33.2,30.35,WSW,238,2.0,4.0,81,0.00,,,0.00,Wunderground v.1.15,2013-01-09 06:53:00,
2013-01-09 01:58:00,38.4,33.1,30.35,WSW,238,3.0,4.0,81,0.00,,,0.00,Wunderground v.1.15,2013-01-09 06:58:00,
2013-01-09 02:03:00,38.4,33.4,30.35,SW,231,4.0,5.0,82,0.00,,,0.00,Wunderground v.1.15,2013-01-09 07:03:00,
2013-01-09 02:08:00,38.4,33.1,30.35,SW,233,4.0,6.0,81,0.00,,,0.00,Wunderground v.1.15,2013-01-09 07:08:00,
2013-01-09 02:13:00,38.4,33.1,30.35,SW,232,4.0,5.0,81,0.00,,,0.00,Wunderground v.1.15,2013-01-09 07:13:00,
2013-01-09 02:18:00,38.4,33.1,30.35,SW,229,4.0,5.0,81,0.00,,,0.00,Wunderground v.1.15,2013-01-09 07:18:00,
2013-01-09 02:24:00,38.4,33.4,30.35,SW,234,4.0,4.0,82,0.00,,,0.00,Wunderground v.1.15,2013-01-09 07:24:00,
2013-01-09 02:29:00,38.5,33.5,30.35,WSW,237,4.0,4.0,82,0.00,,,0.00,Wunderground v.1.15,2013-01-09 07:29:00,
2013-01-09 02:34:00,38.6,33.6,30.34,SW,227,4.0,4.0,82,0.00,,,0.00,Wunderground v.1.15,2013-01-09 07:34:00,
2013-01-09 02:40:00,38.6,33.6,30.34,SW,227,2.0,2.0,82,0.00,,,0.00,Wunderground v.1.15,2013-01-09 07:40:00,
2013-01-09 02:46:00,38.6,33.6,30.34,SW,227,1.0,3.0,82,0.00,,,0.00,Wunderground v.1.15,2013-01-09 07:46:00,
2013-01-09 02:52:00,38.5,33.5,30.34,SW,227,2.0,3.0,82,0.00,,,0.00,Wunderground v.1.15,2013-01-09 07:52:00,
2013-01-09 02:57:00,38.4,33.4,30.34,SW,227,2.0,3.0,82,0.00,,,0.00,Wunderground v.1.15,2013-01-09 07:57:00,
2013-01-09 03:02:00,38.3,33.3,30.34,SW,227,2.0,2.0,82,0.00,,,0.00,Wunderground v.1.15,2013-01-09 08:02:00,
2013-01-09 03:08:00,38.3,33.6,30.34,SW,227,2.0,2.0,83,0.00,,,0.00,Wunderground v.1.15,2013-01-09 08:08:00,
2013-01-09 03:13:00,38.2,33.5,30.34,SW,227,1.0,2.0,83,0.00,,,0.00,Wunderground v.1.15,2013-01-09 08:13:00,
2013-01-09 03:18:00,38.3,33.6,30.34,SW,227,1.0,2.0,83,0.00,,,0.00,Wunderground v.1.15,2013-01-09 08:18:00,
2013-01-09 03:23:00,38.3,33.6,30.34,SW,227,1.0,2.0,83,0.00,,,0.00,Wunderground v.1.15,2013-01-09 08:23:00,
2013-01-09 03:28:00,38.4,33.7,30.34,SW,227,1.0,2.0,83,0.00,,,0.00,Wunderground v.1.15,2013-01-09 08:28:00,
2013-01-09 03:33:00,38.6,33.9,30.34,SW,227,2.0,2.0,83,0.00,,,0.00,Wunderground v.1.15,2013-01-09 08:33:00,
2013-01-09 03:39:00,38.6,33.9,30.34,SW,227,2.0,2.0,83,0.00,,,0.00,Wunderground v.1.15,2013-01-09 08:39:00,
2013-01-09 03:44:00,38.6,33.6,30.33,SW,227,2.0,2.0,82,0.00,,,0.00,Wunderground v.1.15,2013-01-09 08:44:00,
2013-01-09 03:50:00,38.4,33.7,30.33,SW,227,2.0,4.0,83,0.00,,,0.00,Wunderground v.1.15,2013-01-09 08:50:00,
2013-01-09 03:56:00,38.2,33.5,30.33,SW,229,3.0,4.0,83,0.00,,,0.00,Wunderground v.1.15,2013-01-09 08:56:00,
2013-01-09 04:03:00,37.9,33.5,30.33,SW,227,4.0,5.0,84,0.00,,,0.00,Wunderground v.1.15,2013-01-09 09:03:00,
2013-01-09 04:09:00,37.7,33.3,30.33,WSW,243,4.0,6.0,84,0.00,,,0.00,Wunderground v.1.15,2013-01-09 09:09:00,
2013-01-09 04:14:00,37.5,33.1,30.33,SW,231,4.0,5.0,84,0.00,,,0.00,Wunderground v.1.15,2013-01-09 09:14:00,
2013-01-09 04:19:00,37.4,33.0,30.33,WSW,243,4.0,5.0,84,0.00,,,0.00,Wunderground v.1.15,2013-01-09 09:19:00,
2013-01-09 04:24:00,37.2,32.8,30.33,SW,232,4.0,5.0,84,0.00,,,0.00,Wunderground v.1.15,2013-01-09 09:24:00,
2013-01-09 04:29:00,37.0,32.9,30.33,SW,234,4.0,5.0,85,0.00,,,0.00,Wunderground v.1.15,2013-01-09 09:29:00,
2013-01-09 04:35:00,36.9,33.1,30.33,SW,227,4.0,6.0,86,0.00,,,0.00,Wunderground v.1.15,2013-01-09 09:35:00,
2013-01-09 04:40:00,36.8,33.0,30.33,WSW,237,4.0,4.0,86,0.00,,,0.00,Wunderground v.1.15,2013-01-09 09:40:00,
2013-01-09 04:45:00,36.6,32.8,30.33,SW,222,4.0,4.0,86,0.00,,,0.00,Wunderground v.1.15,2013-01-09 09:45:00,
2013-01-09 04:51:00,36.5,33.0,30.33,SW,228,4.0,4.0,87,0.00,,,0.00,Wunderground v.1.15,2013-01-09 09:51:00,
2013-01-09 04:56:00,36.4,32.9,30.33,SW,225,4.0,6.0,87,0.00,,,0.00,Wunderground v.1.15,2013-01-09 09:56:00,
2013-01-09 05:01:00,36.2,32.7,30.33,SW,229,4.0,4.0,87,0.00,,,0.00,Wunderground v.1.15,2013-01-09 10:01:00,
2013-01-09 05:07:00,36.1,32.6,30.32,SW,227,4.0,4.0,87,0.00,,,0.00,Wunderground v.1.15,2013-01-09 10:07:00,
2013-01-09 05:12:00,36.1,32.6,30.32,SW,220,4.0,4.0,87,0.00,,,0.00,Wunderground v.1.15,2013-01-09 10:12:00,
2013-01-09 05:17:00,36.1,32.9,30.32,SW,230,4.0,5.0,88,0.00,,,0.00,Wunderground v.1.15,2013-01-09 10:17:00,
2013-01-09 05:23:00,36.0,32.8,30.32,SW,219,5.0,6.0,88,0.00,,,0.00,Wunderground v.1.15,2013-01-09 10:23:00,
2013-01-09 05:28:00,35.9,32.7,30.32,SW,231,5.0,6.0,88,0.00,,,0.00,Wunderground v.1.15,2013-01-09 10:28:00,
2013-01-09 05:34:00,35.7,32.5,30.32,SW,220,5.0,7.0,88,0.00,,,0.00,Wunderground v.1.15,2013-01-09 10:34:00,
2013-01-09 05:39:00,35.6,32.4,30.32,SW,229,5.0,7.0,88,0.00,,,0.00,Wunderground v.1.15,2013-01-09 10:39:00,
2013-01-09 05:44:00,35.5,32.6,30.32,SW,234,5.0,6.0,89,0.00,,,0.00,Wunderground v.1.15,2013-01-09 10:44:00,
2013-01-09 05:49:00,35.5,32.6,30.32,WSW,242,5.0,6.0,89,0.00,,,0.00,Wunderground v.1.15,2013-01-09 10:49:00,
2013-01-09 05:55:00,35.5,32.6,30.32,WSW,242,4.0,5.0,89,0.00,,,0.00,Wunderground v.1.15,2013-01-09 10:55:00,
2013-01-09 06:00:00,35.5,32.6,30.32,WSW,241,4.0,4.0,89,0.00,,,0.00,Wunderground v.1.15,2013-01-09 11:00:00,
2013-01-09 06:05:00,35.5,32.6,30.32,WSW,246,4.0,4.0,89,0.00,,,0.00,Wunderground v.1.15,2013-01-09 11:05:00,
2013-01-09 06:11:00,35.4,32.8,30.32,WSW,238,4.0,4.0,90,0.00,,,0.00,Wunderground v.1.15,2013-01-09 11:11:00,
2013-01-09 06:16:00,35.5,32.9,30.32,WSW,244,4.0,5.0,90,0.00,,,0.00,Wunderground v.1.15,2013-01-09 11:16:00,
2013-01-09 06:21:00,35.6,33.0,30.33,SW,234,4.0,5.0,90,0.00,,,0.00,Wunderground v.1.15,2013-01-09 11:21:00,
2013-01-09 06:27:00,35.7,33.1,30.33,SW,234,4.0,5.0,90,0.00,,,0.00,Wunderground v.1.15,2013-01-09 11:27:00,
2013-01-09 06:33:00,35.9,33.3,30.33,WSW,248,4.0,5.0,90,0.00,,,0.00,Wunderground v.1.15,2013-01-09 11:33:00,
2013-01-09 06:38:00,35.9,33.3,30.33,WSW,248,4.0,5.0,90,0.00,,,0.00,Wunderground v.1.15,2013-01-09 11:38:00,
2013-01-09 06:44:00,35.6,32.7,30.33,WSW,247,3.0,4.0,89,0.00,,,0.00,Wunderground v.1.15,2013-01-09 11:44:00,
2013-01-09 06:49:00,35.6,32.7,30.33,SW,236,3.0,4.0,89,0.00,,,0.00,Wunderground v.1.15,2013-01-09 11:49:00,
2013-01-09 06:55:00,35.7,32.8,30.33,WSW,238,4.0,4.0,89,0.00,,,0.00,Wunderground v.1.15,2013-01-09 11:55:00,
2013-01-09 07:00:00,35.8,33.2,30.32,WSW,245,4.0,5.0,90,0.00,,,0.00,Wunderground v.1.15,2013-01-09 12:00:00,
2013-01-09 07:05:00,36.2,33.3,30.32,WSW,248,4.0,5.0,89,0.00,,,0.00,Wunderground v.1.15,2013-01-09 12:05:00,
2013-01-09 07:11:00,36.5,33.6,30.32,SW,232,4.0,4.0,89,0.00,,,0.00,Wunderground v.1.15,2013-01-09 12:11:00,
2013-01-09 07:17:00,36.7,33.5,30.32,SW,230,3.0,4.0,88,0.00,,,0.00,Wunderground v.1.15,2013-01-09 12:17:00,
2013-01-09 07:23:00,36.8,33.6,30.32,WSW,238,3.0,4.0,88,0.00,,,0.00,Wunderground v.1.15,2013-01-09 12:23:00,
2013-01-09 07:28:00,37.0,33.8,30.32,WSW,240,3.0,4.0,88,0.00,,,0.00,Wunderground v.1.15,2013-01-09 12:28:00,
2013-01-09 07:33:00,37.0,33.5,30.32,SW,234,3.0,4.0,87,0.00,,,0.00,Wunderground v.1.15,2013-01-09 12:33:00,
2013-01-09 07:38:00,37.1,33.6,30.32,SW,236,3.0,4.0,87,0.00,,,0.00,Wunderground v.1.15,2013-01-09 12:38:00,
2013-01-09 07:43:00,37.2,33.7,30.32,SW,234,4.0,5.0,87,0.00,,,0.00,Wunderground v.1.15,2013-01-09 12:43:00,
2013-01-09 07:49:00,37.4,33.6,30.32,WSW,240,4.0,5.0,86,0.00,,,0.00,Wunderground v.1.15,2013-01-09 12:49:00,
2013-01-09 07:55:00,37.5,33.7,30.32,WSW,237,3.0,5.0,86,0.00,,,0.00,Wunderground v.1.15,2013-01-09 12:55:00,
2013-01-09 08:01:00,37.7,33.9,30.32,WSW,241,3.0,4.0,86,0.00,,,0.00,Wunderground v.1.15,2013-01-09 13:01:00,
2013-01-09 08:06:00,37.9,33.8,30.33,WSW,242,3.0,4.0,85,0.00,,,0.00,Wunderground v.1.15,2013-01-09 13:06:00,
2013-01-09 08:12:00,38.1,34.0,30.33,WSW,240,4.0,5.0,85,0.00,,,0.00,Wunderground v.1.15,2013-01-09 13:12:00,
2013-01-09 08:17:00,38.3,34.2,30.33,WSW,237,4.0,5.0,85,0.00,,,0.00,Wunderground v.1.15,2013-01-09 13:17:00,
2013-01-09 08:22:00,38.4,34.3,30.33,SW,230,5.0,6.0,85,0.00,,,0.00,Wunderground v.1.15,2013-01-09 13:22:00,
2013-01-09 08:27:00,38.4,34.0,30.34,West,260,5.0,6.0,84,0.00,,,0.00,Wunderground v.1.15,2013-01-09 13:27:00,
2013-01-09 08:33:00,38.1,34.0,30.34,SW,223,6.0,6.0,85,0.00,,,0.00,Wunderground v.1.15,2013-01-09 13:33:00,
2013-01-09 08:38:00,37.9,34.1,30.33,WSW,244,5.0,6.0,86,0.00,,,0.00,Wunderground v.1.15,2013-01-09 13:38:00,
2013-01-09 08:44:00,37.7,34.2,30.33,WSW,243,4.0,6.0,87,0.00,,,0.00,Wunderground v.1.15,2013-01-09 13:44:00,
2013-01-09 08:51:00,37.7,34.2,30.34,WSW,252,5.0,8.0,87,0.00,,,0.00,Wunderground v.1.15,2013-01-09 13:51:00,
2013-01-09 08:56:00,37.8,34.3,30.33,WSW,240,6.0,10.0,87,0.00,,,0.00,Wunderground v.1.15,2013-01-09 13:56:00,
2013-01-09 09:01:00,38.0,34.5,30.33,WSW,242,6.0,6.0,87,0.00,,,0.00,Wunderground v.1.15,2013-01-09 14:01:00,
2013-01-09 09:07:00,38.0,34.5,30.33,SW,218,6.0,9.0,87,0.00,,,0.00,Wunderground v.1.15,2013-01-09 14:07:00,
2013-01-09 09:13:00,37.9,34.7,30.32,SW,236,6.0,8.0,88,0.00,,,0.00,Wunderground v.1.15,2013-01-09 14:13:00,
2013-01-09 09:18:00,38.0,34.8,30.32,SW,236,6.0,8.0,88,0.00,,,0.00,Wunderground v.1.15,2013-01-09 14:18:00,
2013-01-09 09:23:00,38.3,34.8,30.31,SW,236,6.0,8.0,87,0.00,,,0.00,Wunderground v.1.15,2013-01-09 14:23:00,
2013-01-09 09:29:00,38.8,35.0,30.31,WSW,256,7.0,10.0,86,0.00,,,0.00,Wunderground v.1.15,2013-01-09 14:29:00,
2013-01-09 09:34:00,39.1,35.3,30.30,SSW,206,8.0,9.0,86,0.00,,,0.00,Wunderground v.1.15,2013-01-09 14:34:00,
2013-01-09 09:39:00,39.2,35.1,30.31,WSW,248,7.0,11.0,85,0.00,,,0.00,Wunderground v.1.15,2013-01-09 14:39:00,
2013-01-09 09:45:00,39.5,35.4,30.32,WSW,241,7.0,8.0,85,0.00,,,0.00,Wunderground v.1.15,2013-01-09 14:45:00,
2013-01-09 09:50:00,39.6,35.2,30.32,WSW,257,8.0,8.0,84,0.00,,,0.00,Wunderground v.1.15,2013-01-09 14:50:00,
2013-01-09 09:56:00,39.8,35.7,30.32,WSW,248,8.0,8.0,85,0.00,,,0.00,Wunderground v.1.15,2013-01-09 14:56:00,
2013-01-09 10:01:00,40.2,35.8,30.32,WSW,256,7.0,9.0,84,0.00,,,0.00,Wunderground v.1.15,2013-01-09 15:01:00,
2013-01-09 10:06:00,40.5,36.0,30.32,West,260,8.0,11.0,84,0.00,,,0.00,Wunderground v.1.15,2013-01-09 15:06:00,
2013-01-09 10:11:00,40.7,35.9,30.32,SW,235,9.0,11.0,83,0.00,,,0.00,Wunderground v.1.15,2013-01-09 15:11:00,
2013-01-09 10:16:00,40.8,36.0,30.32,WSW,238,9.0,11.0,83,0.00,,,0.00,Wunderground v.1.15,2013-01-09 15:16:00,
2013-01-09 10:22:00,41.0,36.2,30.32,WSW,247,8.0,12.0,83,0.00,,,0.00,Wunderground v.1.15,2013-01-09 15:22:00,
2013-01-09 10:27:00,41.1,36.3,30.31,SW,231,8.0,12.0,83,0.00,,,0.00,Wunderground v.1.15,2013-01-09 15:27:00,
2013-01-09 10:32:00,41.3,36.5,30.31,SW,215,7.0,7.0,83,0.00,,,0.00,Wunderground v.1.15,2013-01-09 15:32:00,
2013-01-09 10:37:00,41.4,36.9,30.31,WSW,252,7.0,9.0,84,0.00,,,0.00,Wunderground v.1.15,2013-01-09 15:37:00,
2013-01-09 10:43:00,41.9,37.1,30.31,WSW,258,8.0,10.0,83,0.00,,,0.00,Wunderground v.1.15,2013-01-09 15:43:00,
2013-01-09 10:48:00,42.0,36.9,30.32,West,263,8.0,10.0,82,0.00,,,0.00,Wunderground v.1.15,2013-01-09 15:48:00,
2013-01-09 10:53:00,42.0,36.9,30.32,WSW,256,7.0,8.0,82,0.00,,,0.00,Wunderground v.1.15,2013-01-09 15:53:00,
2013-01-09 10:58:00,41.9,37.1,30.32,WSW,250,7.0,9.0,83,0.00,,,0.00,Wunderground v.1.15,2013-01-09 15:58:00,
2013-01-09 11:03:00,41.9,37.1,30.31,WSW,257,7.0,9.0,83,0.00,,,0.00,Wunderground v.1.15,2013-01-09 16:03:00,
2013-01-09 11:08:00,42.3,37.5,30.31,SW,225,7.0,9.0,83,0.00,,,0.00,Wunderground v.1.15,2013-01-09 16:08:00,
2013-01-09 11:14:00,42.4,37.3,30.30,WSW,256,7.0,9.0,82,0.00,,,0.00,Wunderground v.1.15,2013-01-09 16:14:00,
2013-01-09 11:19:00,42.7,37.3,30.30,West,265,7.0,10.0,81,0.00,,,0.00,Wunderground v.1.15,2013-01-09 16:19:00,
2013-01-09 11:24:00,42.3,36.6,30.29,WSW,250,8.0,11.0,80,0.00,,,0.00,Wunderground v.1.15,2013-01-09 16:24:00,
2013-01-09 11:29:00,41.9,36.5,30.29,WSW,257,8.0,11.0,81,0.00,,,0.00,Wunderground v.1.15,2013-01-09 16:29:00,
2013-01-09 11:35:00,41.6,36.2,30.28,WSW,246,8.0,9.0,81,0.00,,,0.00,Wunderground v.1.15,2013-01-09 16:35:00,
2013-01-09 11:40:00,41.3,36.2,30.28,WSW,245,8.0,10.0,82,0.00,,,0.00,Wunderground v.1.15,2013-01-09 16:40:00,
2013-01-09 11:45:00,41.3,36.2,30.27,WSW,240,8.0,10.0,82,0.00,,,0.00,Wunderground v.1.15,2013-01-09 16:45:00,
2013-01-09 11:51:00,41.2,36.4,30.27,SW,225,8.0,8.0,83,0.00,,,0.00,Wunderground v.1.15,2013-01-09 16:51:00,
2013-01-09 11:56:00,41.1,36.3,30.27,SW,236,8.0,10.0,83,0.00,,,0.00,Wunderground v.1.15,2013-01-09 16:56:00,
2013-01-09 12:01:00,41.0,36.2,30.28,WSW,247,8.0,12.0,83,0.00,,,0.00,Wunderground v.1.15,2013-01-09 17:01:00,
2013-01-09 12:07:00,40.9,36.1,30.26,WSW,257,8.0,12.0,83,0.00,,,0.00,Wunderground v.1.15,2013-01-09 17:07:00,
2013-01-09 12:12:00,40.9,36.1,30.27,West,260,6.0,7.0,83,0.00,,,0.00,Wunderground v.1.15,2013-01-09 17:12:00,
2013-01-09 12:18:00,40.8,36.3,30.27,WSW,249,6.0,7.0,84,0.00,,,0.00,Wunderground v.1.15,2013-01-09 17:18:00,
2013-01-09 12:23:00,40.7,36.2,30.28,West,277,6.0,7.0,84,0.00,,,0.00,Wunderground v.1.15,2013-01-09 17:23:00,
2013-01-09 12:29:00,40.8,36.3,30.28,SW,227,7.0,7.0,84,0.00,,,0.00,Wunderground v.1.15,2013-01-09 17:29:00,
2013-01-09 12:34:00,40.9,36.1,30.27,West,267,6.0,7.0,83,0.00,,,0.00,Wunderground v.1.15,2013-01-09 17:34:00,
2013-01-09 12:40:00,41.1,36.6,30.28,WNW,285,5.0,5.0,84,0.00,,,0.00,Wunderground v.1.15,2013-01-09 17:40:00,
2013-01-09 12:45:00,41.3,36.8,30.28,West,279,4.0,6.0,84,0.00,,,0.00,Wunderground v.1.15,2013-01-09 17:45:00,
2013-01-09 12:51:00,41.5,37.0,30.28,West,279,5.0,5.0,84,0.00,,,0.00,Wunderground v.1.15,2013-01-09 17:51:00,
2013-01-09 12:56:00,41.7,36.9,30.28,WNW,284,4.0,5.0,83,0.00,,,0.00,Wunderground v.1.15,2013-01-09 17:56:00,
2013-01-09 13:01:00,41.9,37.1,30.28,West,273,4.0,5.0,83,0.00,,,0.00,Wunderground v.1.15,2013-01-09 18:01:00,
2013-01-09 13:06:00,42.4,37.6,30.28,WNW,282,4.0,5.0,83,0.00,,,0.00,Wunderground v.1.15,2013-01-09 18:06:00,
2013-01-09 13:12:00,42.9,37.8,30.27,West,277,4.0,4.0,82,0.00,,,0.00,Wunderground v.1.15,2013-01-09 18:12:00,
2013-01-09 13:17:00,43.1,37.7,30.25,West,269,4.0,5.0,81,0.00,,,0.00,Wunderground v.1.15,2013-01-09 18:17:00,
2013-01-09 13:22:00,43.1,37.7,30.25,West,263,5.0,6.0,81,0.00,,,0.00,Wunderground v.1.15,2013-01-09 18:22:00,
2013-01-09 13:28:00,43.1,38.3,30.25,WSW,256,6.0,8.0,83,0.00,,,0.00,Wunderground v.1.15,2013-01-09 18:28:00,
2013-01-09 13:34:00,43.1,38.3,30.24,WSW,244,6.0,9.0,83,0.00,,,0.00,Wunderground v.1.15,2013-01-09 18:34:00,
2013-01-09 13:40:00,42.7,37.6,30.24,SW,232,7.0,7.0,82,0.00,,,0.00,Wunderground v.1.15,2013-01-09 18:40:00,
2013-01-09 13:41:00,42.7,37.9,30.24,SW,228,7.0,7.0,83,0.00,,,0.00,Wunderground v.1.15,2013-01-09 18:41:00,
2013-01-09 13:44:00,42.5,37.7,30.23,SW,220,8.0,11.0,83,0.00,,,0.00,Wunderground v.1.15,2013-01-09 18:44:00,
2013-01-09 13:45:00,42.4,37.6,30.23,SW,236,8.0,11.0,83,0.00,,,0.00,Wunderground v.1.15,2013-01-09 18:45:00,
2013-01-09 13:46:00,42.4,37.6,30.23,WSW,251,8.0,11.0,83,0.00,,,0.00,Wunderground v.1.15,2013-01-09 18:46:00,
2013-01-09 13:47:00,42.3,37.5,30.22,SW,219,8.0,11.0,83,0.00,,,0.00,Wunderground v.1.15,2013-01-09 18:47:00,
2013-01-09 13:48:00,42.2,37.4,30.22,WSW,253,8.0,11.0,83,0.00,,,0.00,Wunderground v.1.15,2013-01-09 18:48:00,
2013-01-09 13:49:00,42.2,37.4,30.22,SSW,211,8.0,11.0,83,0.00,,,0.00,Wunderground v.1.15,2013-01-09 18:49:00,
2013-01-09 13:51:00,42.2,37.4,30.22,SW,230,8.0,8.0,83,0.00,,,0.00,Wunderground v.1.15,2013-01-09 18:51:00,
2013-01-09 13:52:00,42.2,37.7,30.22,WSW,245,8.0,8.0,84,0.00,,,0.00,Wunderground v.1.15,2013-01-09 18:52:00,
2013-01-09 13:57:00,42.1,37.6,30.22,WSW,237,7.0,9.0,84,0.00,,,0.00,Wunderground v.1.15,2013-01-09 18:57:00,
2013-01-09 14:02:00,42.0,37.8,30.21,SW,217,8.0,8.0,85,0.00,,,0.00,Wunderground v.1.15,2013-01-09 19:02:00,
2013-01-09 14:08:00,41.8,37.6,30.20,SSW,199,8.0,12.0,85,0.00,,,0.00,Wunderground v.1.15,2013-01-09 19:08:00,
2013-01-09 14:13:00,41.7,37.5,30.19,West,263,8.0,11.0,85,0.00,,,0.00,Wunderground v.1.15,2013-01-09 19:13:00,
2013-01-09 14:19:00,41.8,37.3,30.19,WSW,252,9.0,14.0,84,0.00,,,0.00,Wunderground v.1.15,2013-01-09 19:19:00,
2013-01-09 14:24:00,41.9,37.4,30.19,SW,236,10.0,13.0,84,0.00,,,0.00,Wunderground v.1.15,2013-01-09 19:24:00,
2013-01-09 14:29:00,41.8,37.6,30.19,SW,229,9.0,13.0,85,0.00,,,0.00,Wunderground v.1.15,2013-01-09 19:29:00,
2013-01-09 14:35:00,41.8,37.6,30.19,West,261,8.0,10.0,85,0.00,,,0.00,Wunderground v.1.15,2013-01-09 19:35:00,
2013-01-09 14:41:00,41.7,37.8,30.19,WSW,239,9.0,12.0,86,0.00,,,0.00,Wunderground v.1.15,2013-01-09 19:41:00,
2013-01-09 14:46:00,41.7,37.8,30.19,SW,232,9.0,12.0,86,0.00,,,0.00,Wunderground v.1.15,2013-01-09 19:46:00,
2013-01-09 14:52:00,41.7,37.8,30.18,WSW,251,9.0,9.0,86,0.00,,,0.00,Wunderground v.1.15,2013-01-09 19:52:00,
2013-01-09 14:57:00,41.8,37.9,30.19,WSW,243,8.0,11.0,86,0.00,,,0.00,Wunderground v.1.15,2013-01-09 19:57:00,
2013-01-09 15:03:00,42.0,37.8,30.19,SW,219,8.0,10.0,85,0.00,,,0.00,Wunderground v.1.15,2013-01-09 20:03:00,
2013-01-09 15:08:00,42.1,37.9,30.19,WSW,255,8.0,10.0,85,0.00,,,0.00,Wunderground v.1.15,2013-01-09 20:08:00,
2013-01-09 15:13:00,42.2,38.0,30.19,West,262,8.0,12.0,85,0.00,,,0.00,Wunderground v.1.15,2013-01-09 20:13:00,
2013-01-09 15:18:00,42.4,37.9,30.18,SW,217,8.0,13.0,84,0.00,,,0.00,Wunderground v.1.15,2013-01-09 20:18:00,
2013-01-09 15:23:00,42.5,38.0,30.19,WSW,252,9.0,10.0,84,0.00,,,0.00,Wunderground v.1.15,2013-01-09 20:23:00,
2013-01-09 15:28:00,42.6,38.1,30.18,SSW,195,10.0,14.0,84,0.00,,,0.00,Wunderground v.1.15,2013-01-09 20:28:00,
2013-01-09 15:34:00,42.7,38.2,30.18,WSW,252,10.0,11.0,84,0.00,,,0.00,Wunderground v.1.15,2013-01-09 20:34:00,
2013-01-09 15:39:00,42.9,38.4,30.18,SW,236,10.0,13.0,84,0.00,,,0.00,Wunderground v.1.15,2013-01-09 20:39:00,
2013-01-09 15:44:00,43.0,38.2,30.19,WSW,253,10.0,13.0,83,0.00,,,0.00,Wunderground v.1.15,2013-01-09 20:44:00,
2013-01-09 15:50:00,43.3,38.5,30.18,West,263,11.0,11.0,83,0.00,,,0.00,Wunderground v.1.15,2013-01-09 20:50:00,
2013-01-09 15:56:00,43.5,38.4,30.19,West,261,11.0,13.0,82,0.00,,,0.00,Wunderground v.1.15,2013-01-09 20:56:00,
2013-01-09 16:01:00,43.7,38.6,30.19,WSW,257,10.0,11.0,82,0.00,,,0.00,Wunderground v.1.15,2013-01-09 21:01:00,
2013-01-09 16:06:00,43.8,38.3,30.19,West,272,10.0,12.0,81,0.00,,,0.00,Wunderground v.1.15,2013-01-09 21:06:00,
2013-01-09 16:12:00,44.0,38.5,30.18,West,260,10.0,11.0,81,0.00,,,0.00,Wunderground v.1.15,2013-01-09 21:12:00,
2013-01-09 16:17:00,44.1,38.6,30.19,West,260,11.0,12.0,81,0.00,,,0.00,Wunderground v.1.15,2013-01-09 21:17:00,
2013-01-09 16:22:00,44.1,38.6,30.19,West,259,10.0,11.0,81,0.00,,,0.00,Wunderground v.1.15,2013-01-09 21:22:00,
2013-01-09 16:27:00,44.1,38.6,30.19,West,265,10.0,11.0,81,0.00,,,0.00,Wunderground v.1.15,2013-01-09 21:27:00,
2013-01-09 16:33:00,44.1,38.6,30.19,West,277,9.0,10.0,81,0.00,,,0.00,Wunderground v.1.15,2013-01-09 21:33:00,
2013-01-09 16:38:00,44.0,38.5,30.19,West,259,9.0,11.0,81,0.00,,,0.00,Wunderground v.1.15,2013-01-09 21:38:00,
2013-01-09 16:43:00,44.0,38.5,30.19,West,271,9.0,10.0,81,0.00,,,0.00,Wunderground v.1.15,2013-01-09 21:43:00,
2013-01-09 16:49:00,44.1,38.6,30.20,West,267,9.0,12.0,81,0.00,,,0.00,Wunderground v.1.15,2013-01-09 21:49:00,
2013-01-09 16:55:00,44.1,38.6,30.20,West,279,10.0,12.0,81,0.00,,,0.00,Wunderground v.1.15,2013-01-09 21:55:00,
2013-01-09 17:00:00,44.1,39.0,30.20,West,279,10.0,10.0,82,0.00,,,0.00,Wunderground v.1.15,2013-01-09 22:00:00,
2013-01-09 17:05:00,44.2,39.1,30.20,West,265,9.0,11.0,82,0.00,,,0.00,Wunderground v.1.15,2013-01-09 22:05:00,
2013-01-09 17:11:00,44.4,38.9,30.21,West,277,9.0,10.0,81,0.00,,,0.00,Wunderground v.1.15,2013-01-09 22:11:00,
2013-01-09 17:16:00,44.5,39.0,30.21,West,281,9.0,10.0,81,0.00,,,0.00,Wunderground v.1.15,2013-01-09 22:16:00,
2013-01-09 17:21:00,44.6,39.1,30.21,West,261,9.0,11.0,81,0.00,,,0.00,Wunderground v.1.15,2013-01-09 22:21:00,
2013-01-09 17:26:00,44.8,39.3,30.22,WNW,302,9.0,11.0,81,0.00,,,0.00,Wunderground v.1.15,2013-01-09 22:26:00,
2013-01-09 17:31:00,44.9,39.4,30.23,NW,324,9.0,9.0,81,0.00,,,0.00,Wunderground v.1.15,2013-01-09 22:31:00,
2013-01-09 17:37:00,44.8,39.6,30.23,NW,315,8.0,9.0,82,0.00,,,0.00,Wunderground v.1.15,2013-01-09 22:37:00,
2013-01-09 17:42:00,44.6,39.4,30.24,NW,309,7.0,7.0,82,0.00,,,0.00,Wunderground v.1.15,2013-01-09 22:42:00,
2013-01-09 17:47:00,44.6,39.4,30.23,NW,309,6.0,7.0,82,0.00,,,0.00,Wunderground v.1.15,2013-01-09 22:47:00,
2013-01-09 17:53:00,44.5,39.3,30.23,WNW,303,5.0,6.0,82,0.00,,,0.00,Wunderground v.1.15,2013-01-09 22:53:00,
2013-01-09 17:58:00,44.2,39.1,30.23,WNW,294,5.0,6.0,82,0.00,,,0.00,Wunderground v.1.15,2013-01-09 22:58:00,
2013-01-09 18:03:00,44.1,39.3,30.22,WNW,287,5.0,7.0,83,0.00,,,0.00,Wunderground v.1.15,2013-01-09 23:03:00,
2013-01-09 18:09:00,44.0,38.9,30.22,West,281,5.0,7.0,82,0.00,,,0.00,Wunderground v.1.15,2013-01-09 23:09:00,
2013-01-09 18:14:00,43.8,38.7,30.24,WNW,292,5.0,5.0,82,0.00,,,0.00,Wunderground v.1.15,2013-01-09 23:14:00,
2013-01-09 18:19:00,43.7,38.9,30.24,NW,306,5.0,7.0,83,0.00,,,0.00,Wunderground v.1.15,2013-01-09 23:19:00,
2013-01-09 18:25:00,43.4,38.6,30.25,WNW,300,6.0,7.0,83,0.00,,,0.00,Wunderground v.1.15,2013-01-09 23:25:00,
2013-01-09 18:30:00,43.6,39.1,30.25,WNW,290,6.0,6.0,84,0.00,,,0.00,Wunderground v.1.15,2013-01-09 23:30:00,
2013-01-09 18:36:00,44.3,39.8,30.25,WNW,288,8.0,11.0,84,0.00,,,0.00,Wunderground v.1.15,2013-01-09 23:36:00,
2013-01-09 18:41:00,45.1,40.2,30.26,WNW,288,9.0,9.0,83,0.00,,,0.00,Wunderground v.1.15,2013-01-09 23:41:00,
2013-01-09 18:47:00,45.6,40.4,30.26,WNW,294,9.0,9.0,82,0.00,,,0.00,Wunderground v.1.15,2013-01-09 23:47:00,
2013-01-09 18:52:00,46.1,40.6,30.26,WNW,290,9.0,9.0,81,0.00,,,0.00,Wunderground v.1.15,2013-01-09 23:52:00,
2013-01-09 18:58:00,46.5,41.0,30.25,WNW,289,10.0,13.0,81,0.00,,,0.00,Wunderground v.1.15,2013-01-09 23:58:00,
2013-01-09 19:04:00,46.8,41.0,30.25,WNW,288,11.0,13.0,80,0.00,,,0.00,Wunderground v.1.15,2013-01-10 00:04:00,
2013-01-09 19:09:00,46.8,41.0,30.25,WNW,287,11.0,13.0,80,0.00,,,0.00,Wunderground v.1.15,2013-01-10 00:09:00,
2013-01-09 19:14:00,46.4,40.6,30.25,WNW,290,11.0,11.0,80,0.00,,,0.00,Wunderground v.1.15,2013-01-10 00:14:00,
2013-01-09 19:20:00,46.3,40.8,30.26,WNW,284,10.0,12.0,81,0.00,,,0.00,Wunderground v.1.15,2013-01-10 00:20:00,
2013-01-09 19:26:00,46.1,40.6,30.26,WNW,287,11.0,12.0,81,0.00,,,0.00,Wunderground v.1.15,2013-01-10 00:26:00,
2013-01-09 19:32:00,46.1,40.6,30.26,WNW,296,10.0,10.0,81,0.00,,,0.00,Wunderground v.1.15,2013-01-10 00:32:00,
2013-01-09 19:38:00,46.3,40.8,30.26,WNW,285,10.0,13.0,81,0.00,,,0.00,Wunderground v.1.15,2013-01-10 00:38:00,
2013-01-09 19:44:00,46.3,40.5,30.26,WNW,282,10.0,13.0,80,0.00,,,0.00,Wunderground v.1.15,2013-01-10 00:44:00,
2013-01-09 19:49:00,46.3,40.5,30.26,WNW,292,9.0,13.0,80,0.00,,,0.00,Wunderground v.1.15,2013-01-10 00:49:00,
2013-01-09 19:54:00,46.3,40.5,30.26,WNW,288,10.0,12.0,80,0.00,,,0.00,Wunderground v.1.15,2013-01-10 00:54:00,
2013-01-09 20:00:00,46.5,40.3,30.26,WNW,296,10.0,10.0,79,0.00,,,0.00,Wunderground v.1.15,2013-01-10 01:00:00,
2013-01-09 20:06:00,46.6,40.4,30.26,WNW,287,9.0,11.0,79,0.00,,,0.00,Wunderground v.1.15,2013-01-10 01:06:00,
2013-01-09 20:11:00,46.4,40.2,30.26,WNW,296,9.0,10.0,79,0.00,,,0.00,Wunderground v.1.15,2013-01-10 01:11:00,
2013-01-09 20:17:00,46.3,39.8,30.26,WNW,298,8.0,10.0,78,0.00,,,0.00,Wunderground v.1.15,2013-01-10 01:17:00,
2013-01-09 20:23:00,46.4,39.9,30.26,WNW,300,9.0,12.0,78,0.00,,,0.00,Wunderground v.1.15,2013-01-10 01:23:00,
2013-01-09 20:28:00,46.5,39.7,30.27,WNW,292,9.0,12.0,77,0.00,,,0.00,Wunderground v.1.15,2013-01-10 01:28:00,
2013-01-09 20:33:00,46.5,39.7,30.27,WNW,302,9.0,11.0,77,0.00,,,0.00,Wunderground v.1.15,2013-01-10 01:33:00,
2013-01-09 20:38:00,46.5,39.3,30.27,NW,304,9.0,11.0,76,0.00,,,0.00,Wunderground v.1.15,2013-01-10 01:38:00,
2013-01-09 20:44:00,46.0,38.9,30.27,NW,306,9.0,10.0,76,0.00,,,0.00,Wunderground v.1.15,2013-01-10 01:44:00,
2013-01-09 20:49:00,45.6,38.5,30.28,NW,309,9.0,10.0,76,0.00,,,0.00,Wunderground v.1.15,2013-01-10 01:49:00,
2013-01-09 20:55:00,45.3,38.2,30.28,NW,306,9.0,10.0,76,0.00,,,0.00,Wunderground v.1.15,2013-01-10 01:55:00,
2013-01-09 21:00:00,45.4,38.3,30.28,WNW,293,9.0,11.0,76,0.00,,,0.00,Wunderground v.1.15,2013-01-10 02:00:00,
2013-01-09 21:05:00,45.6,38.1,30.28,WNW,301,9.0,11.0,75,0.00,,,0.00,Wunderground v.1.15,2013-01-10 02:05:00,
2013-01-09 21:11:00,45.7,37.9,30.28,WNW,299,9.0,9.0,74,0.00,,,0.00,Wunderground v.1.15,2013-01-10 02:11:00,
2013-01-09 21:16:00,45.6,37.8,30.28,WNW,303,9.0,10.0,74,0.00,,,0.00,Wunderground v.1.15,2013-01-10 02:16:00,
2013-01-09 21:21:00,45.7,37.5,30.28,WNW,294,8.0,10.0,73,0.00,,,0.00,Wunderground v.1.15,2013-01-10 02:21:00,
2013-01-09 21:27:00,45.8,37.3,30.28,WNW,302,9.0,10.0,72,0.00,,,0.00,Wunderground v.1.15,2013-01-10 02:27:00,
2013-01-09 21:32:00,45.4,37.2,30.28,NW,306,8.0,8.0,73,0.00,,,0.00,Wunderground v.1.15,2013-01-10 02:32:00,
2013-01-09 21:38:00,45.3,37.2,30.27,WNW,298,8.0,9.0,73,0.00,,,0.00,Wunderground v.1.15,2013-01-10 02:38:00,
2013-01-09 21:43:00,45.4,36.9,30.27,WNW,298,8.0,10.0,72,0.00,,,0.00,Wunderground v.1.15,2013-01-10 02:43:00,
2013-01-09 21:48:00,45.3,36.8,30.28,WNW,298,8.0,10.0,72,0.00,,,0.00,Wunderground v.1.15,2013-01-10 02:48:00,
2013-01-09 21:53:00,45.0,36.5,30.28,WNW,296,7.0,8.0,72,0.00,,,0.00,Wunderground v.1.15,2013-01-10 02:53:00,
2013-01-09 21:59:00,44.7,36.6,30.28,NW,309,7.0,8.0,73,0.00,,,0.00,Wunderground v.1.15,2013-01-10 02:59:00,
2013-01-09 22:04:00,44.7,36.2,30.28,WNW,291,8.0,11.0,72,0.00,,,0.00,Wunderground v.1.15,2013-01-10 03:04:00,
2013-01-09 22:09:00,44.9,36.1,30.28,NW,315,8.0,11.0,71,0.00,,,0.00,Wunderground v.1.15,2013-01-10 03:09:00,
2013-01-09 22:15:00,44.8,36.0,30.28,NW,305,8.0,9.0,71,0.00,,,0.00,Wunderground v.1.15,2013-01-10 03:15:00,
2013-01-09 22:20:00,44.6,35.8,30.28,NW,310,8.0,9.0,71,0.00,,,0.00,Wunderground v.1.15,2013-01-10 03:20:00,
2013-01-09 22:26:00,44.4,35.6,30.28,NW,304,8.0,10.0,71,0.00,,,0.00,Wunderground v.1.15,2013-01-10 03:26:00,
2013-01-09 22:31:00,44.4,35.2,30.28,WNW,303,8.0,10.0,70,0.00,,,0.00,Wunderground v.1.15,2013-01-10 03:31:00,
2013-01-09 22:36:00,44.3,35.1,30.28,WNW,295,8.0,10.0,70,0.00,,,0.00,Wunderground v.1.15,2013-01-10 03:36:00,
2013-01-09 22:41:00,44.2,34.7,30.28,NW,309,8.0,12.0,69,0.00,,,0.00,Wunderground v.1.15,2013-01-10 03:41:00,
2013-01-09 22:46:00,44.2,34.7,30.29,NW,306,9.0,12.0,69,0.00,,,0.00,Wunderground v.1.15,2013-01-10 03:46:00,
2013-01-09 22:52:00,44.1,34.2,30.29,NW,313,8.0,10.0,68,0.00,,,0.00,Wunderground v.1.15,2013-01-10 03:52:00,
2013-01-09 22:57:00,44.1,34.2,30.29,WNW,302,9.0,10.0,68,0.00,,,0.00,Wunderground v.1.15,2013-01-10 03:57:00,
2013-01-09 23:03:00,44.1,34.2,30.30,NW,309,9.0,9.0,68,0.00,,,0.00,Wunderground v.1.15,2013-01-10 04:03:00,
2013-01-09 23:09:00,44.2,33.9,30.30,NW,313,9.0,11.0,67,0.00,,,0.00,Wunderground v.1.15,2013-01-10 04:09:00,
2013-01-09 23:14:00,44.0,33.7,30.30,NW,311,9.0,9.0,67,0.00,,,0.00,Wunderground v.1.15,2013-01-10 04:14:00,
2013-01-09 23:20:00,43.9,33.6,30.30,NW,310,8.0,9.0,67,0.00,,,0.00,Wunderground v.1.15,2013-01-10 04:20:00,
2013-01-09 23:25:00,44.0,33.4,30.30,NW,309,9.0,12.0,66,0.00,,,0.00,Wunderground v.1.15,2013-01-10 04:25:00,
2013-01-09 23:30:00,43.9,33.3,30.30,NW,306,9.0,10.0,66,0.00,,,0.00,Wunderground v.1.15,2013-01-10 04:30:00,
2013-01-09 23:35:00,43.8,33.2,30.30,NW,321,9.0,14.0,66,0.00,,,0.00,Wunderground v.1.15,2013-01-10 04:35:00,
2013-01-09 23:41:00,43.8,33.2,30.31,NW,308,9.0,9.0,66,0.00,,,0.00,Wunderground v.1.15,2013-01-10 04:41:00,
2013-01-09 23:46:00,43.6,33.0,30.31,NW,316,9.0,11.0,66,0.00,,,0.00,Wunderground v.1.15,2013-01-10 04:46:00,
2013-01-09 23:52:00,43.7,33.1,30.31,NW,321,8.0,9.0,66,0.00,,,0.00,Wunderground v.1.15,2013-01-10 04:52:00,
2013-01-09 23:58:00,43.7,33.1,30.31,NW,314,8.0,10.0,66,0.00,,,0.00,Wunderground v.1.15,2013-01-10 04:58:00,